Home > Weather > Guilin > Past weeks

Flag for China Weather for the Past 2 Weeks in Guilin, Guangxi, China

Now
37 °F

Fog.


Feels Like: 37 °F
Forecast: 33 / 62 °F
Wind: 1 mph from North

Location: Guilin Airport

Current Time: Feb 7, 2016 at 3:23:42 AM

Latest Report: Feb 7, 2016 at 3:00 AM


Visibility: 2 mi

Pressure: 30.42 "Hg

Humidity: 93%

Dew point: 36 °F

Location of GuilinLocation

Historic Weather in Guilin — Graph

°F

Guilin Temperature Yesterday

Maximum temperature yesterday: 59 °F (at 2:00 PM)
Minimum temperature yesterday: 36 °F (at 5:00 AM)
Average temperature yesterday: 47 °F

High & Low Weather Summary for the Past Weeks

 TemperatureHumidityPressure
High59 °F (Feb 5, 4:00 PM)100% (Jan 26, 8:00 PM)30.80 "Hg (Jan 26, 8:00 PM)
Low34 °F (Jan 25, 7:00 AM)29% (Jan 25, 2:00 PM)30.04 "Hg (Jan 28, 2:00 PM)
Average43 °F74%30.37 "Hg
* Reported Jan 23 2:00 AM — Feb 7 2:00 AM, Guilin, Weather by CustomWeather, © 2016

Note: Actual official high and low records may vary slightly from our data, if they occured in-between our weather recording intervals... More about our weather records

Advertising

Guilin Weather History for the Previous 24 Hours

 ConditionsComfort  
Time TempWeatherWind HumidityBarometerVisibility
2:00 AM
Sun, Feb 7
39 °FFog.1 mph87%30.45 "Hg2 mi
1:00 AM39 °FFog.No wind93%30.45 "Hg2 mi
12:00 AM41 °FFog.No wind87%30.48 "Hg2 mi
11:00 PM
Sat, Feb 6
41 °FFog.No wind87%30.48 "Hg2 mi
10:00 PM45 °FHaze.6 mph76%30.48 "Hg2 mi
9:00 PM46 °FClear.3 mph62%30.45 "Hg4 mi
8:00 PM50 °FClear.3 mph50%30.45 "Hg4 mi
7:00 PM54 °FPassing clouds.8 mph44%30.42 "HgN/A
6:00 PM57 °FPassing clouds.6 mph39%30.39 "HgN/A
5:00 PM59 °FSunny.8 mph31%30.39 "Hg10 mi
4:00 PM59 °FSunny.8 mph31%30.39 "Hg10 mi
3:00 PM59 °FSunny.6 mph29%30.39 "Hg10 mi
2:00 PM59 °FSunny.10 mph29%30.42 "Hg10 mi
1:00 PM57 °FPassing clouds.10 mph31%30.45 "HgN/A
12:00 PM55 °FPassing clouds.13 mph33%30.51 "HgN/A
11:00 AM54 °FSunny.6 mph38%30.51 "Hg10 mi
10:00 AM46 °FSunny.No wind62%30.51 "Hg10 mi
9:00 AM39 °FSunny.1 mph87%30.51 "Hg10 mi
8:00 AM36 °FSunny.1 mph93%30.45 "Hg10 mi
7:00 AM36 °FClear.1 mph93%30.45 "Hg5 mi
6:00 AM36 °FFog.No wind93%30.42 "Hg3 mi
5:00 AM36 °FClear.No wind100%30.42 "Hg4 mi
4:00 AM37 °FClear.No wind93%30.39 "Hg4 mi
3:00 AM39 °FClear.No wind87%30.42 "Hg4 mi
Weather by CustomWeather, © 2016

See weather overviewHow to use our weather pages